| time (UTC) | temp F | wind direction | speed MPH | gust MPH | rain 1hr in | rain 24hr in | rain mn in | humidity % | barometer mb |
| 20260903003046 | 65 | 304 | 0.0 | 0.0 | 0.00 | 0.15 | 0.15 | 87 | 1016.9 |
| 20260903001546 | 65 | 331 | 0.0 | 0.0 | 0.00 | 0.15 | 0.15 | 88 | 1016.9 |
| 20260903000045 | 65 | 304 | 0.0 | 2.0 | 0.00 | 0.15 | 0.15 | 87 | 1017.1 |
| 20260902234544 | 65 | 300 | 0.0 | 1.0 | 0.00 | 0.15 | 0.15 | 86 | 1017.2 |
| 20260902233040 | 65 | 267 | 0.0 | 3.0 | 0.00 | 0.15 | 0.15 | 86 | 1017.3 |
| 20260902231543 | 65 | 277 | 0.0 | 2.0 | 0.00 | 0.15 | 0.15 | 87 | 1017.4 |
| 20260902230030 | 66 | 294 | 0.0 | 2.0 | 0.00 | 0.15 | 0.15 | 85 | 1017.5 |
| 20260902224543 | 66 | 305 | 0.0 | 2.0 | 0.00 | 0.15 | 0.15 | 85 | 1017.8 |
| 20260902223022 | 65 | 297 | 0.0 | 1.0 | 0.00 | 0.15 | 0.15 | 83 | 1017.8 |
| 20260902221522 | 65 | 328 | 0.0 | 1.0 | 0.00 | 0.15 | 0.15 | 85 | 1018.0 |
| 20260902220028 | 65 | 296 | 0.0 | 5.0 | 0.00 | 0.15 | 0.15 | 84 | 1018.0 |
| 20260902214510 | 65 | 334 | 0.0 | 0.0 | 0.00 | 0.15 | 0.15 | 86 | 1018.1 |
| 20260902213003 | 65 | 318 | 0.0 | 0.0 | 0.00 | 0.15 | 0.15 | 86 | 1018.1 |
| 20260902211559 | 64 | 300 | 0.0 | 3.0 | 0.00 | 0.15 | 0.15 | 87 | 1018.1 |
| 20260902210054 | 64 | 335 | 0.0 | 1.0 | 0.00 | 0.15 | 0.15 | 91 | 1018.1 |
| 20260902204551 | 64 | 335 | 0.0 | 0.0 | 0.00 | 0.15 | 0.15 | 92 | 1017.9 |
| 20260902203046 | 64 | 272 | 0.0 | 0.0 | 0.00 | 0.15 | 0.15 | 92 | 1018.2 |
| 20260902201550 | 63 | 299 | 0.0 | 1.0 | 0.00 | 0.15 | 0.15 | 93 | 1018.2 |
| 20260902200037 | 63 | 328 | 0.0 | 5.0 | 0.00 | 0.15 | 0.15 | 95 | 1018.1 |
| 20260902194535 | 62 | 312 | 0.0 | 0.0 | 0.00 | 0.15 | 0.15 | 95 | 1018.2 |
| 20260902193040 | 62 | 354 | 0.0 | 0.0 | 0.00 | 0.15 | 0.15 | 97 | 1018.1 |
| 20260902191526 | 62 | 316 | 0.0 | 0.0 | 0.00 | 0.15 | 0.15 | 97 | 1018.3 |
| 20260902190021 | 61 | 311 | 0.0 | 0.0 | 0.00 | 0.15 | 0.15 | 97 | 1018.3 |
| 20260902184520 | 61 | 317 | 0.0 | 0.0 | 0.00 | 0.15 | 0.15 | 97 | 1018.4 |
| 20260902183026 | 61 | 305 | 0.0 | 0.0 | 0.00 | 0.15 | 0.15 | 98 | 1018.5 |
| 20260902181518 | 61 | 300 | 0.0 | 0.0 | 0.00 | 0.15 | 0.15 | 98 | 1018.3 |
| 20260902180015 | 60 | 352 | 0.0 | 0.0 | 0.00 | 0.15 | 0.15 | 98 | 1018.2 |
| 20260902174513 | 60 | 335 | 0.0 | 0.0 | 0.00 | 0.15 | 0.15 | 98 | 1017.9 |
| 20260902173016 | 60 | 341 | 0.0 | 0.0 | 0.00 | 0.15 | 0.15 | 98 | 1017.8 |
| 20260902171511 | 59 | 344 | 0.0 | 1.0 | 0.00 | 0.15 | 0.15 | 97 | 1017.7 |
| 20260902170009 | 59 | 330 | 0.0 | 0.0 | 0.00 | 0.15 | 0.15 | 97 | 1017.6 |
| 20260902164508 | 59 | 346 | 0.0 | 0.0 | 0.01 | 0.16 | 0.15 | 97 | 1017.5 |
| 20260902163006 | 59 | 359 | 0.0 | 0.0 | 0.01 | 0.16 | 0.15 | 97 | 1017.2 |
| 20260902161506 | 59 | 338 | 0.0 | 0.0 | 0.01 | 0.16 | 0.15 | 97 | 1017.0 |
| 20260902160007 | 59 | 302 | 0.0 | 0.0 | 0.01 | 0.16 | 0.15 | 97 | 1017.0 |
| 20260902154505 | 59 | 267 | 0.0 | 0.0 | 0.00 | 0.15 | 0.14 | 97 | 1017.0 |
| 20260902153011 | 59 | 225 | 0.0 | 0.0 | 0.00 | 0.15 | 0.14 | 97 | 1017.1 |
| 20260902151503 | 59 | 231 | 0.0 | 0.0 | 0.00 | 0.15 | 0.14 | 97 | 1017.0 |
| 20260902150001 | 59 | 208 | 0.0 | 0.0 | 0.00 | 0.15 | 0.14 | 97 | 1016.9 |
| 20260902144603 | 59 | 220 | 0.0 | 0.0 | 0.00 | 0.15 | 0.14 | 97 | 1016.9 |
| 20260902143059 | 59 | 202 | 0.0 | 8.0 | 0.00 | 0.15 | 0.14 | 97 | 1016.6 |
| 20260902141557 | 59 | 208 | 0.0 | 12.0 | 0.00 | 0.15 | 0.14 | 97 | 1016.4 |
| 20260902140056 | 59 | 215 | 3.0 | 13.0 | 0.00 | 0.15 | 0.14 | 97 | 1016.1 |
| 20260902134557 | 59 | 220 | 0.0 | 9.0 | 0.00 | 0.16 | 0.14 | 97 | 1015.9 |
| 20260902133056 | 60 | 217 | 2.0 | 15.0 | 0.02 | 0.16 | 0.14 | 97 | 1015.9 |
| 20260902131555 | 60 | 220 | 6.0 | 15.0 | 0.03 | 0.16 | 0.14 | 97 | 1015.6 |
| 20260902130051 | 60 | 221 | 6.0 | 17.0 | 0.06 | 0.16 | 0.14 | 97 | 1015.5 |
| 20260902124550 | 60 | 216 | 2.0 | 16.0 | 0.06 | 0.16 | 0.14 | 97 | 1015.4 |
| 20260902123055 | 60 | 220 | 3.0 | 15.0 | 0.04 | 0.14 | 0.12 | 97 | 1015.5 |
| 20260902121545 | 60 | 223 | 1.0 | 12.0 | 0.08 | 0.13 | 0.11 | 97 | 1015.5 |
| 20260902120044 | 60 | 200 | 5.0 | 14.0 | 0.07 | 0.10 | 0.08 | 97 | 1015.5 |
| 20260902114544 | 60 | 213 | 0.0 | 11.0 | 0.07 | 0.10 | 0.08 | 97 | 1015.6 |
| 20260902113040 | 60 | 221 | 0.0 | 11.0 | 0.07 | 0.10 | 0.08 | 97 | 1015.7 |
| 20260902111540 | 60 | 223 | 2.0 | 13.0 | 0.02 | 0.05 | 0.03 | 96 | 1015.7 |
| 20260902110043 | 60 | 221 | 4.0 | 15.0 | 0.00 | 0.03 | 0.01 | 97 | 1015.5 |
| 20260902104536 | 60 | 214 | 6.0 | 15.0 | 0.00 | 0.03 | 0.01 | 96 | 1015.5 |
| 20260902103033 | 60 | 219 | 6.0 | 15.0 | 0.00 | 0.03 | 0.01 | 96 | 1015.6 |
| 20260902101536 | 60 | 198 | 2.0 | 14.0 | 0.00 | 0.03 | 0.01 | 96 | 1015.8 |
| 20260902100030 | 60 | 208 | 2.0 | 13.0 | 0.01 | 0.03 | 0.01 | 96 | 1016.0 |
| 20260902094530 | 60 | 218 | 1.0 | 9.0 | 0.01 | 0.04 | 0.01 | 95 | 1016.0 |
| 20260902093036 | 60 | 193 | 0.0 | 1.0 | 0.01 | 0.04 | 0.01 | 95 | 1016.0 |
| 20260902091527 | 60 | 198 | 0.0 | 1.0 | 0.01 | 0.04 | 0.01 | 95 | 1016.2 |
| 20260902090025 | 61 | 193 | 0.0 | 5.0 | 0.00 | 0.03 | 0.00 | 95 | 1016.3 |
| 20260902084525 | 61 | 204 | 0.0 | 7.0 | 0.00 | 0.03 | 0.00 | 95 | 1016.4 |
| 20260902083024 | 60 | 187 | 0.0 | 8.0 | 0.00 | 0.03 | 0.00 | 95 | 1016.5 |
| 20260902081524 | 60 | 181 | 0.0 | 8.0 | 0.00 | 0.03 | 0.00 | 96 | 1016.5 |
| 20260902080022 | 60 | 202 | 0.0 | 8.0 | 0.00 | 0.03 | 0.00 | 95 | 1016.5 |
| 20260902074525 | 60 | 214 | 0.0 | 0.0 | 0.00 | 0.03 | 0.00 | 95 | 1016.6 |
| 20260902073020 | 60 | 197 | 0.0 | 0.0 | 0.00 | 0.03 | 0.00 | 95 | 1016.4 |
| 20260902071519 | 60 | 176 | 0.0 | 1.0 | 0.00 | 0.03 | 0.00 | 95 | 1016.4 |
| 20260902070020 | 60 | 214 | 0.0 | 3.0 | 0.00 | 0.03 | 0.00 | 95 | 1016.5 |
| 20260902064516 | 60 | 206 | 0.0 | 7.0 | 0.00 | 0.03 | 0.03 | 96 | 1016.5 |
| 20260902063016 | 60 | 208 | 0.0 | 0.0 | 0.00 | 0.03 | 0.03 | 95 | 1016.4 |
| 20260902061536 | 60 | 206 | 0.0 | 0.0 | 0.00 | 0.03 | 0.03 | 95 | 1016.5 |
| 20260902060017 | 60 | 196 | 0.0 | 0.0 | 0.00 | 0.03 | 0.03 | 95 | 1016.6 |
| 20260902054517 | 59 | 196 | 0.0 | 0.0 | 0.00 | 0.03 | 0.03 | 95 | 1016.6 |
| 20260902053014 | 59 | 204 | 0.0 | 5.0 | 0.00 | 0.03 | 0.03 | 94 | 1016.5 |
| 20260902051513 | 58 | 199 | 0.0 | 2.0 | 0.00 | 0.03 | 0.03 | 94 | 1016.6 |
| 20260902050013 | 59 | 212 | 0.0 | 3.0 | 0.00 | 0.03 | 0.03 | 93 | 1016.4 |
| 20260902044513 | 59 | 144 | 0.0 | 0.0 | 0.00 | 0.03 | 0.03 | 94 | 1016.3 |
| 20260902043011 | 59 | 191 | 0.0 | 0.0 | 0.00 | 0.03 | 0.03 | 94 | 1016.4 |
| 20260902041511 | 59 | 197 | 0.0 | 0.0 | 0.00 | 0.03 | 0.03 | 94 | 1016.4 |
| 20260902040011 | 60 | 193 | 0.0 | 2.0 | 0.00 | 0.03 | 0.03 | 94 | 1016.3 |
| 20260902034512 | 60 | 360 | 0.0 | 0.0 | 0.00 | 0.03 | 0.03 | 94 | 1016.4 |
| 20260902033010 | 60 | 360 | 0.0 | 0.0 | 0.00 | 0.03 | 0.03 | 93 | 1016.2 |
| 20260902031509 | 61 | 360 | 0.0 | 0.0 | 0.00 | 0.03 | 0.03 | 93 | 1016.3 |
| 20260902030009 | 61 | 360 | 0.0 | 0.0 | 0.00 | 0.03 | 0.03 | 93 | 1016.4 |
| 20260902024509 | 61 | 360 | 0.0 | 0.0 | 0.00 | 0.03 | 0.03 | 93 | 1016.1 |
| 20260902023008 | 61 | 360 | 0.0 | 1.0 | 0.00 | 0.03 | 0.03 | 92 | 1015.8 |
| 20260902021507 | 61 | 354 | 0.0 | 1.0 | 0.00 | 0.03 | 0.03 | 93 | 1016.1 |
| 20260902020007 | 61 | 348 | 0.0 | 0.0 | 0.00 | 0.03 | 0.03 | 92 | 1016.0 |
| 20260902014507 | 61 | 356 | 0.0 | 0.0 | 0.00 | 0.03 | 0.03 | 92 | 1016.1 |
| 20260902013006 | 62 | 334 | 0.0 | 0.0 | 0.00 | 0.03 | 0.03 | 91 | 1016.3 |
| 20260902011514 | 62 | 343 | 0.0 | 0.0 | 0.00 | 0.03 | 0.03 | 91 | 1016.2 |
| 20260902010009 | 62 | 325 | 0.0 | 0.0 | 0.00 | 0.03 | 0.03 | 90 | 1016.3 |
| 20260902004506 | 63 | 304 | 0.0 | 0.0 | 0.00 | 0.03 | 0.03 | 89 | 1016.3 |